Weather History for Woensdrecht, Netherlands

Change the Weather History Date:

Tuesday, February 12, 2013

  Actual Average Record
Temperature  
Mean Temperature 28 °F -  
Max Temperature 32 °F 45 °F 59 °F (1998)
Min Temperature 23 °F 35 °F 8 °F (2012)
Degree Days  
Heating Degree Days 38    
Moisture  
Dew Point 22 °F    
Average Humidity 79    
Maximum Humidity 86    
Minimum Humidity 64    
Precipitation  
Precipitation 0.00 in - - ()
Sea Level Pressure  
Sea Level Pressure 29.94 in    
Wind  
Wind Speed 8 mph ()    
Max Wind Speed 13 mph    
Max Gust Speed -    
Visibility 4.9 miles    
Events      
Averages and records for this station are not official NWS values.
T = Trace of Precipitation, MM = Missing Value Source: Averaged Metar Reports

Daily Weather History Graph

Daily Weather History Graph

Search for Another Location

Airport:

Trip Planner

Search our weather history database for the weather conditions in past years. The results will help you decide how hot, cold, wet, or windy it might be!

Date:

Astronomy

Feb. 12, 2013 Rise Set
Actual Time 8:01 AM CET 5:52 PM CET
Civil Twilight 7:27 AM CET 6:27 PM CET
Nautical Twilight 6:47 AM CET 7:06 PM CET
Astronomical Twilight 6:09 AM CET 7:45 PM CET
Moon 8:28 AM CET (2/12) 9:03 PM CET (2/12)
Length of Visible Light 11h 00m
Length of Day
9h 50m
Waxing Crescent, 6% of the Moon is Illuminated
Feb 12
Waxing Crescent
Feb 17
First Quarter
Feb 25
Full
Mar 4
Last Quarter
Mar 11
New

Hourly Weather History & Observations

Time (CET) Temp. Windchill Dew Point Humidity Pressure Visibility Wind Dir Wind Speed Gust Speed Precip Events Conditions
12:25 AM 28.4 °F 18.0 °F 23.0 °F 80% 29.74 in 6.2 mi ENE 12.7 mph - N/A   Unknown
12:55 AM 28.4 °F 18.0 °F 23.0 °F 80% 29.74 in 6.2 mi ENE 12.7 mph - N/A   Unknown
1:25 AM 28.4 °F 18.5 °F 23.0 °F 80% 29.77 in 6.2 mi ENE 11.5 mph - N/A   Unknown
1:55 AM 26.6 °F 16.2 °F 21.2 °F 80% 29.77 in 5.6 mi ENE 11.5 mph - N/A   Haze
2:25 AM 26.6 °F 16.8 °F 21.2 °F 80% 29.77 in 5.0 mi ENE 10.4 mph - N/A   Haze
2:46 AM 26.6 °F 17.5 °F 21.2 °F 80% 29.80 in 4.3 mi ENE 9.2 mph - N/A   Haze
2:55 AM 26.6 °F 17.5 °F 21.2 °F 80% 29.80 in 5.0 mi ENE 9.2 mph - N/A   Haze
3:03 AM 24.8 °F 16.1 °F 21.2 °F 86% 29.80 in 4.3 mi ENE 8.1 mph - N/A   Haze
3:07 AM 24.8 °F 15.3 °F 21.2 °F 86% 29.80 in 5.0 mi ENE 9.2 mph - N/A   Haze
3:15 AM 24.8 °F 15.3 °F 21.2 °F 86% 29.80 in 4.3 mi ENE 9.2 mph - N/A   Mist
3:19 AM 24.8 °F 16.1 °F 21.2 °F 86% 29.80 in 5.0 mi ENE 8.1 mph - N/A   Mist
3:25 AM 24.8 °F 16.1 °F 21.2 °F 86% 29.80 in 4.3 mi ENE 8.1 mph - N/A   Mist
3:28 AM 24.8 °F 16.1 °F 21.2 °F 86% 29.80 in 5.0 mi ENE 8.1 mph - N/A   Mist
3:33 AM 24.8 °F 16.1 °F 21.2 °F 86% 29.80 in 4.3 mi ENE 8.1 mph - N/A   Mist
3:37 AM 24.8 °F 16.1 °F 21.2 °F 86% 29.80 in 5.0 mi ENE 8.1 mph - N/A   Mist
3:41 AM 24.8 °F 16.1 °F 21.2 °F 86% 29.80 in 4.3 mi ENE 8.1 mph - N/A   Mist
3:45 AM 24.8 °F 16.1 °F 21.2 °F 86% 29.80 in 5.0 mi ENE 8.1 mph - N/A   Mist
3:49 AM 24.8 °F 16.1 °F 21.2 °F 86% 29.80 in 4.3 mi ENE 8.1 mph - N/A   Mist
3:55 AM 24.8 °F 16.1 °F 21.2 °F 86% 29.80 in 4.3 mi ENE 8.1 mph - N/A   Mist
4:08 AM 24.8 °F 16.1 °F 21.2 °F 86% 29.80 in 5.0 mi ENE 8.1 mph - N/A   Mist
4:12 AM 24.8 °F 16.1 °F 21.2 °F 86% 29.80 in 4.3 mi ENE 8.1 mph - N/A   Mist
4:25 AM 24.8 °F 16.1 °F 21.2 °F 86% 29.80 in 4.3 mi ENE 8.1 mph - N/A   Mist
4:55 AM 24.8 °F 15.3 °F 21.2 °F 86% 29.83 in 4.3 mi ENE 9.2 mph - N/A   Mist
5:25 AM 24.8 °F 15.3 °F 21.2 °F 86% 29.83 in 4.3 mi ENE 9.2 mph - N/A   Mist
5:55 AM 24.8 °F 14.6 °F 21.2 °F 86% 29.83 in 4.3 mi ENE 10.4 mph - N/A   Mist
6:25 AM 24.8 °F 15.3 °F 21.2 °F 86% 29.86 in 5.0 mi ENE 9.2 mph - N/A   Mist
6:30 AM 24.8 °F 15.3 °F 21.2 °F 86% 29.86 in 4.3 mi ENE 9.2 mph - N/A   Mist
6:42 AM 24.8 °F 16.1 °F 21.2 °F 86% 29.86 in 5.0 mi ENE 8.1 mph - N/A   Mist
6:46 AM 24.8 °F 16.1 °F 21.2 °F 86% 29.86 in 4.3 mi ENE 8.1 mph - N/A   Mist
6:49 AM 24.8 °F 16.1 °F 21.2 °F 86% 29.86 in 5.0 mi ENE 8.1 mph - N/A   Mist
6:55 AM 24.8 °F 16.1 °F 21.2 °F 86% 29.86 in 4.3 mi ENE 8.1 mph - N/A   Mist
7:09 AM 24.8 °F 16.1 °F 21.2 °F 86% 29.86 in 5.0 mi NE 8.1 mph - N/A   Mist
7:12 AM 24.8 °F 16.9 °F 21.2 °F 86% 29.86 in 4.3 mi NE 6.9 mph - N/A   Mist
7:25 AM 23.0 °F 15.8 °F 19.4 °F 86% 29.86 in 4.3 mi NE 5.8 mph - N/A   Partly Cloudy
7:55 AM 24.8 °F 16.1 °F 21.2 °F 86% 29.89 in 4.3 mi NE 8.1 mph - N/A   Mist
8:25 AM 24.8 °F 15.3 °F 21.2 °F 86% 29.89 in 3.7 mi NE 9.2 mph - N/A   Mist
8:55 AM 26.6 °F 18.2 °F 21.2 °F 80% 29.92 in 4.3 mi NE 8.1 mph - N/A   Mist
9:25 AM 26.6 °F 18.2 °F 23.0 °F 86% 29.92 in 4.3 mi NE 8.1 mph - N/A   Overcast
9:55 AM 28.4 °F 19.1 °F 23.0 °F 80% 29.95 in 5.0 mi NE 10.4 mph - N/A   Overcast
10:25 AM 28.4 °F 20.4 °F 23.0 °F 80% 29.95 in 4.3 mi ENE 8.1 mph - N/A   Overcast
11:11 AM 30.2 °F 23.4 °F 24.8 °F 80% 29.95 in 5.0 mi ENE 6.9 mph - N/A   Overcast
11:15 AM 30.2 °F 23.4 °F 24.8 °F 80% 29.95 in 4.3 mi ENE 6.9 mph - N/A   Overcast
11:25 AM 30.2 °F 23.4 °F 24.8 °F 80% 29.95 in 5.0 mi ENE 6.9 mph - N/A   Overcast
11:36 AM 30.2 °F 22.6 °F 24.8 °F 80% 29.95 in 5.0 mi ENE 8.1 mph - N/A   Haze
11:55 AM 32.0 °F 24.2 °F 23.0 °F 69% 29.95 in 5.0 mi ENE 9.2 mph - N/A   Haze
12:25 PM 32.0 °F 24.2 °F 23.0 °F 69% 29.98 in 5.0 mi ENE 9.2 mph - N/A   Haze
12:36 PM 32.0 °F 24.2 °F 23.0 °F 69% 29.98 in 5.0 mi ENE 9.2 mph - N/A   Haze
12:55 PM 32.0 °F 23.6 °F 23.0 °F 69% 29.98 in 5.0 mi ENE 10.4 mph - N/A   Haze
1:25 PM 32.0 °F 24.8 °F 23.0 °F 69% 29.98 in 5.0 mi NE 8.1 mph - N/A   Haze
1:42 PM 32.0 °F 23.6 °F 23.0 °F 69% 29.98 in 4.3 mi ENE 10.4 mph - N/A   Haze
1:46 PM 32.0 °F 23.6 °F 23.0 °F 69% 29.98 in 5.0 mi ENE 10.4 mph - N/A   Haze
1:55 PM 32.0 °F 24.8 °F 23.0 °F 69% 29.98 in 5.0 mi ENE 8.1 mph - N/A   Haze
2:06 PM 32.0 °F 24.8 °F 23.0 °F 69% 29.98 in 5.0 mi ENE 8.1 mph - N/A   Haze
2:25 PM 32.0 °F 24.8 °F 23.0 °F 69% 29.98 in 5.0 mi ENE 8.1 mph - N/A   Haze
2:55 PM 32.0 °F 24.8 °F 23.0 °F 69% 29.98 in 5.6 mi ENE 8.1 mph - N/A   Haze
3:25 PM 32.0 °F 24.8 °F 23.0 °F 69% 29.98 in 5.6 mi ENE 8.1 mph - N/A   Haze
3:55 PM 32.0 °F 23.6 °F 21.2 °F 64% 29.98 in 5.6 mi ENE 10.4 mph - N/A   Haze
4:25 PM 32.0 °F 25.6 °F 23.0 °F 69% 30.01 in 5.6 mi NE 6.9 mph - N/A   Haze
4:55 PM 32.0 °F 24.2 °F 21.2 °F 64% 30.01 in 5.6 mi NE 9.2 mph - N/A   Haze
5:25 PM 32.0 °F 24.2 °F 21.2 °F 64% 30.01 in 6.2 mi NE 9.2 mph - N/A   Overcast
5:55 PM 30.2 °F 22.6 °F 21.2 °F 69% 30.01 in 6.2 mi NE 8.1 mph - N/A   Overcast
6:25 PM 30.2 °F 23.4 °F 21.2 °F 69% 30.04 in 6.2 mi NE 6.9 mph - N/A   Overcast
6:55 PM 30.2 °F 25.4 °F 23.0 °F 75% 30.04 in 5.6 mi ENE 4.6 mph - N/A   Haze
7:25 PM 30.2 °F 24.3 °F 23.0 °F 75% 30.06 in 5.6 mi ENE 5.8 mph - N/A   Haze
7:55 PM 30.2 °F 24.3 °F 21.2 °F 69% 30.06 in 5.6 mi East 5.8 mph - N/A   Haze
8:25 PM 30.2 °F 26.7 °F 21.2 °F 69% 30.06 in 5.6 mi NE 3.5 mph - N/A   Haze
8:55 PM 28.4 °F - 21.2 °F 74% 30.09 in 5.0 mi NE 2.3 mph - N/A   Haze
9:25 PM 28.4 °F - 21.2 °F 74% 30.09 in 5.6 mi NE 1.2 mph - N/A   Haze
9:55 PM 28.4 °F - 21.2 °F 74% 30.09 in 5.6 mi WNW 1.2 mph - N/A   Haze
10:25 PM 28.4 °F - 23.0 °F 80% 30.09 in 5.0 mi WSW 2.3 mph - N/A   Haze
10:42 PM 28.4 °F - 23.0 °F 80% 30.09 in 4.3 mi WNW 2.3 mph - N/A   Haze
10:50 PM 28.4 °F - 23.0 °F 80% 30.12 in 5.0 mi NNW 2.3 mph - N/A   Haze
10:55 PM 28.4 °F - 23.0 °F 80% 30.12 in 4.3 mi North 2.3 mph - N/A   Haze
11:00 PM 28.4 °F - 23.0 °F 80% 30.12 in 5.0 mi North 2.3 mph - N/A   Haze
11:03 PM 28.4 °F - 23.0 °F 80% 30.12 in 4.3 mi North 2.3 mph - N/A   Haze
11:08 PM 28.4 °F - 23.0 °F 80% 30.12 in 5.0 mi North 2.3 mph - N/A   Haze
11:13 PM 28.4 °F - 23.0 °F 80% 30.12 in 4.3 mi North 2.3 mph - N/A   Haze
11:17 PM 28.4 °F - 23.0 °F 80% 30.12 in 5.0 mi North 2.3 mph - N/A   Haze
11:21 PM 28.4 °F - 23.0 °F 80% 30.12 in 4.3 mi NNW 1.2 mph - N/A   Haze
11:25 PM 28.4 °F - 23.0 °F 80% 30.12 in 5.0 mi West 1.2 mph - N/A   Haze
11:39 PM 28.4 °F - 23.0 °F 80% 30.12 in 5.0 mi Calm Calm - N/A   Haze
11:42 PM 28.4 °F - 23.0 °F 80% 30.12 in 4.3 mi Calm Calm - N/A   Haze
11:48 PM 28.4 °F - 23.0 °F 80% 30.12 in 5.0 mi NE 1.2 mph - N/A   Haze
11:55 PM 28.4 °F - 23.0 °F 80% 30.12 in 5.0 mi SSW 2.3 mph - N/A   Haze
11:59 PM 28.4 °F - 23.0 °F 80% 30.12 in 4.3 mi SSW 1.2 mph - N/A   Haze